St. Johnsbury, VT

12:54 AM EST on December 18, 2017 (GMT -0500)
St. Johnsbury

Weather History for K1V4 - December, 2012

Change the Weather History Date:

Sunday, December 30, 2012

  Actual Average Record
Temperature  
Mean Temperature 16 °F 18 °F  
Max Temperature 22 °F 28 °F 48 °F (1990)
Min Temperature 10 °F 9 °F -43 °F (1917)
Degree Days  
Heating Degree Days 49 46  
Month to date heating degree days 1091 1250  
Since 1 July heating degree days 2770 2906  
Cooling Degree Days 0 0  
Month to date cooling degree days 0  
Year to date cooling degree days 433  
Moisture  
Dew Point 7 °F    
Average Humidity 79    
Maximum Humidity 92    
Minimum Humidity 66    
Precipitation  
Precipitation 0.01 in 0.09 in 1.19 in (1948)
Month to date precipitation 3.29 2.99  
Year to date precipitation 34.02 39.41  
Sea Level Pressure  
Sea Level Pressure 29.81 in    
Wind  
Wind Speed - (North)    
Max Wind Speed -    
Max Gust Speed -    
T = Trace of Precipitation, MM = Missing Value Source: NWS Daily Summary

Daily Weather History Graph

Daily Weather History Graph

Search for Another Location

Airport or City:

Trip Planner

Search our weather history database for the weather conditions in past years. The results will help you decide how hot, cold, wet, or windy it might be!

Date:

Astronomy

Dec. 30, 2012 Rise Set
Actual Time 7:24 AM EST 4:17 PM EST
Civil Twilight 6:50 AM EST 4:51 PM EST
Nautical Twilight 6:14 AM EST 5:27 PM EST
Astronomical Twilight 5:38 AM EST 6:03 PM EST
Moon 6:52 PM EST (12/30) 8:26 AM EST (12/30)
Length of Visible Light 10h 00m
Length of Day
8h 53m
Waning Gibbous, 95% of the Moon is Illuminated
Dec 30
Waning Gibbous
Jan 4
Last Quarter
Jan 11
New
Jan 18
First Quarter
Jan 26
Full

Hourly Weather History & Observations

Time (EST) Temp. Dew Point Humidity Pressure Visibility Wind Dir Wind Speed Gust Speed Precip Events Conditions
12:54 AM 21.0 °F 18.0 °F 88% 29.55 in - North - - N/A   Unknown
1:54 AM 21.0 °F 17.1 °F 85% 29.56 in - North - - 0.01 in   Unknown
2:54 AM 21.0 °F 16.0 °F 81% 29.57 in - North - - N/A   Unknown
3:54 AM 19.9 °F 16.0 °F 85% 29.59 in - North - - N/A   Unknown
4:54 AM 19.0 °F 12.9 °F 77% 29.62 in - North - - N/A   Unknown
5:54 AM 17.1 °F 10.9 °F 77% 29.65 in - North - - N/A   Unknown
6:54 AM 15.1 °F 9.0 °F 77% 29.69 in - North - - N/A   Unknown
7:54 AM 14.0 °F 9.0 °F 80% 29.71 in - North - - N/A   Unknown
8:54 AM 14.0 °F 10.0 °F 84% 29.74 in - North - - N/A   Unknown
9:54 AM 17.1 °F 9.0 °F 71% 29.76 in - North - - N/A   Unknown
10:54 AM 16.0 °F 8.1 °F 71% 29.77 in - North - - N/A   Unknown
11:54 AM 16.0 °F 7.0 °F 68% 29.78 in - North - - N/A   Unknown
12:54 PM 14.0 °F 5.0 °F 67% 29.79 in - North - - N/A   Unknown
1:54 PM 14.0 °F 5.0 °F 67% 29.81 in - North - - N/A   Unknown
2:54 PM 12.9 °F 3.9 °F 67% 29.84 in - North - - N/A   Unknown
3:54 PM 10.9 °F 3.0 °F 70% 29.88 in - North - - N/A   Unknown
4:54 PM 10.0 °F 1.0 °F 67% 29.92 in - North - - N/A   Unknown
5:54 PM 10.0 °F 1.9 °F 70% 29.96 in - North - - N/A   Unknown
6:54 PM 10.9 °F 1.9 °F 67% 30.00 in - North - - N/A   Unknown
7:54 PM 10.9 °F 3.0 °F 70% 30.02 in - North - - N/A   Unknown
8:54 PM 10.9 °F 3.0 °F 70% 30.02 in - North - - N/A   Unknown
9:54 PM 10.9 °F 1.9 °F 67% 30.02 in - North - - N/A   Unknown
10:54 PM 10.9 °F 3.0 °F 70% 30.04 in - North - - N/A   Unknown
11:54 PM 10.9 °F 3.0 °F 70% 30.04 in - North - - N/A   Unknown